CAPE
0 0 1 3 4 1 0 0 2 3 1 0 0 0 0 0 7 0 0 0 0 0
5 0 1 0 0 0 0 0 0 1 1 0 1 0 0 0 0 0 0 0 0 0
13 0 0 0 0 0 1 0 0 0 0 0 0 0 0 0 0 0 0 0 0 0
0 10 0 0 0 0 1 0 0 0 0 0 0 0 0 0 0 0 0 0 0 0
4 6 0 0 0 1 0 0 0 0 0 0 0 0 0 0 0 0 0 0 0 0
16 8 1 0 0 0 0 0 0 0 0 0 0 0 0 0 0 0 0 0 0 0
3 4 1 0 0 0 0 0 0 0 0 0 0 0 0 0 0 0 0 0 0 0
2 1 0 0 0 0 0 0 0 0 0 0 0 0 0 0 0 0 0 0 0 0
0 0 0 0 0 0 0 0 0 0 0 0 2 2 0 0 0 0 0 0 0 0
0 0 0 0 0 1 0 0 0 0 0 0 1 6 3 0 0 0 0 0 0 0
0 1 0 0 1 1 1 1 1 1 1 1 5 10 4 2 0 0 0 0 0 0
0 1 1 1 1 1 1 1 1 0 0 0 4 8 5 0 0 0 0 0 0 0
0 0 1 1 1 0 0 1 1 1 1 6 6 9 3 0 0 0 0 0 0 0
0 0 0 0 0 0 0 0 0 0 3 3 4 6 5 1 0 0 1 1 1 0
CIN
-0 -0 -0 -15 -29 -36 -3 -0 -0 -0 -0 -0 -0 -0 -0 -0 -0 -0 -0 -0 -0 -0
-12 -0 -0 -0 -0 -0 -0 -0 -0 -0 -0 -0 -0 -0 -0 -0 -0 -0 -0 -0 -0 -0
-0 -0 -0 -0 -0 -0 -0 -0 -0 -0 -0 -0 -0 -0 -0 -0 -0 -0 -0 -0 -0 -0
-0 -37 -0 -0 -0 -0 -0 -0 -0 -0 -0 -0 -0 -0 -0 -0 -0 -0 -0 -0 -0 -0
-0 -51 -0 -0 -0 -120 -0 -0 -0 -0 -0 -0 -0 -0 -0 -0 -0 -0 -0 -0 -0 -0
-27 -38 -46 -0 -0 -0 -0 -0 -0 -0 -0 -0 -0 -0 -0 -0 -0 -0 -0 -0 -0 -0
-21 -51 -39 -0 -0 -0 -0 -0 -0 -0 -0 -0 -0 -0 -0 -0 -0 -0 -0 -0 -0 -0
-0 -25 -0 -0 -0 -0 -0 -0 -0 -0 -0 -0 -0 -0 -0 -0 -0 -0 -0 -0 -0 -0
-0 -0 -0 -0 -0 -0 -0 -0 -0 -0 -0 -0 -0 -0 -0 -0 -0 -0 -0 -0 -0 -0
-0 -0 -0 -0 -0 -0 -0 -0 -0 -0 -0 -0 -0 -0 -0 -0 -0 -0 -0 -0 -0 -0
-0 -0 -0 -0 -0 -0 -0 -0 -0 -0 -0 -0 -0 -0 -0 -0 -0 -0 -0 -0 -0 -0
-0 -0 -0 -0 -0 -0 -0 -0 -0 -0 -0 -0 -0 -0 -0 -0 -0 -0 -0 -0 -0 -0
-0 -0 -0 -0 -0 -0 -0 -0 -0 -0 -0 -0 -0 -0 -0 -0 -0 -0 -0 -0 -0 -0
-0 -0 -0 -0 -0 -0 -0 -0 -0 -0 -0 -0 -0 -0 -0 -0 -0 -0 -0 -0 -0 -0
Wind_Speed
6 4 6 8 6 6 5 5 7 8 9 11 10 11 12 10 11 10 9 11 8 6
7 7 6 7 6 5 7 6 8 9 9 10 12 13 13 10 11 9 7 7 9 7
9 7 7 7 8 8 8 7 9 10 10 11 11 11 11 8 8 10 7 7 9 4
10 7 7 7 7 8 8 9 9 10 10 11 11 11 10 10 11 11 8 6 7 6
8 5 6 6 7 7 8 8 9 9 10 10 11 11 11 11 11 11 10 9 10 8
7 4 6 6 7 7 7 8 8 9 9 9 9 10 10 11 11 10 11 12 12 11
8 4 4 4 5 6 7 8 8 8 8 9 9 10 10 11 11 10 9 9 9 10
7 1 2 3 4 4 6 6 7 9 7 8 9 8 12 11 13 13 11 10 9 8
2 1 2 4 6 6 6 8 8 8 10 10 6 20 21 17 14 13 14 13 11 12
2 4 5 6 6 7 7 7 9 9 10 9 11 22 23 24 13 13 12 14 12 10
3 5 6 7 7 7 7 8 9 9 10 11 11 24 26 23 14 12 12 11 11 11
2 5 6 7 7 7 9 8 8 9 11 14 13 24 25 19 14 13 11 10 9 10
3 5 6 7 8 6 9 10 9 10 10 19 14 22 24 18 10 12 9 9 10 14
3 6 7 8 7 9 10 11 11 11 10 12 13 16 22 22 10 10 9 8 7 6
Wind_Direction
249 237 244 229 212 205 191 196 193 194 188 176 179 175 169 176 175 165 161 159 152 172
262 224 221 218 211 203 201 185 177 183 184 184 182 176 174 179 168 172 158 161 168 163
291 228 217 213 207 205 200 186 178 184 184 173 172 170 172 166 162 155 153 150 158 116
288 228 205 205 200 200 199 188 182 182 175 169 166 166 165 160 152 146 137 128 142 133
290 210 203 204 199 190 187 187 177 177 170 172 168 164 158 155 157 154 147 147 140 131
287 230 217 207 193 187 183 186 175 172 168 163 163 162 161 154 151 149 149 153 143 142
291 255 225 199 183 184 176 169 165 167 159 155 152 145 140 135 126 123 124 126 127 136
285 244 147 143 145 134 147 135 137 128 122 132 140 141 136 131 122 119 117 104 104 108
239 127 92 96 96 98 105 111 117 121 130 134 131 143 135 128 120 125 120 120 117 112
70 86 93 95 98 110 111 117 117 122 127 123 130 138 132 123 120 120 127 120 117 109
99 105 105 104 111 113 117 119 118 115 114 116 128 133 125 116 106 102 95 103 113 117
137 127 121 118 114 113 110 106 108 116 118 119 118 123 119 112 105 101 98 95 111 114
146 135 121 120 118 112 110 108 104 100 104 116 119 123 118 106 109 107 111 114 112 128
124 125 124 114 119 120 113 109 103 101 105 106 111 123 125 123 121 127 123 121 133 142